Time,TemperatureF,DewpointF,PressureIn,WindDirection,WindDirectionDegrees,WindSpeedMPH,WindSpeedGustMPH,Humidity,HourlyPrecipIn,Conditions,Clouds,dailyrainin,SoftwareType,DateUTC
2013-07-02 02:58:00,71.8,67.7,28.82,NW,315,0.0,0.0,87,0.03,,---,0.00,VWS V14.00,2013-07-02 06:58:00,
2013-07-02 02:59:00,71.8,67.7,28.82,NW,315,0.0,0.0,87,0.03,,---,0.00,VWS V14.00,2013-07-02 06:59:00,
2013-07-02 03:01:00,71.8,67.7,28.82,NW,315,0.0,0.0,87,0.00,,---,0.00,VWS V14.00,2013-07-02 07:01:00,
2013-07-02 03:07:00,71.6,67.5,28.82,NW,315,0.0,0.0,87,0.00,,---,0.00,VWS V14.00,2013-07-02 07:07:00,
2013-07-02 03:13:00,71.6,67.5,28.82,NW,315,0.0,0.0,87,0.00,,---,0.00,VWS V14.00,2013-07-02 07:13:00,
2013-07-02 03:19:00,71.6,67.5,28.82,NW,315,0.0,0.0,87,0.00,,---,0.00,VWS V14.00,2013-07-02 07:19:00,
2013-07-02 03:25:00,71.6,67.5,28.82,NW,315,0.0,0.0,87,0.00,,---,0.00,VWS V14.00,2013-07-02 07:25:00,
2013-07-02 03:31:00,71.6,67.5,28.82,NW,315,0.0,0.0,87,0.00,,---,0.00,VWS V14.00,2013-07-02 07:31:00,
2013-07-02 03:38:00,71.6,67.5,28.82,ENE,68,0.0,0.0,87,0.00,,---,0.00,VWS V14.00,2013-07-02 07:38:00,
2013-07-02 03:44:00,71.6,67.5,28.82,NE,45,0.0,0.0,87,0.00,,---,0.00,VWS V14.00,2013-07-02 07:44:00,
2013-07-02 03:50:00,71.6,67.9,28.82,WNW,292,1.1,1.1,88,0.00,,---,0.00,VWS V14.00,2013-07-02 07:50:00,
2013-07-02 03:56:00,71.6,67.9,28.82,WSW,248,0.9,1.1,88,0.00,,---,0.00,VWS V14.00,2013-07-02 07:56:00,
2013-07-02 04:02:00,71.6,67.9,28.82,North,0,0.0,0.0,88,0.00,,---,0.00,VWS V14.00,2013-07-02 08:02:00,
2013-07-02 04:08:00,71.6,67.9,28.82,ENE,68,0.0,0.0,88,0.05,,---,0.05,VWS V14.00,2013-07-02 08:08:00,
2013-07-02 04:14:00,71.6,67.9,28.82,WNW,292,0.0,0.0,88,0.05,,---,0.05,VWS V14.00,2013-07-02 08:14:00,
2013-07-02 04:20:00,71.6,67.9,28.82,NW,315,0.0,0.0,88,0.05,,---,0.05,VWS V14.00,2013-07-02 08:20:00,
2013-07-02 04:26:00,71.6,67.9,28.82,NW,315,0.0,0.0,88,0.05,,---,0.05,VWS V14.00,2013-07-02 08:26:00,
2013-07-02 04:32:00,71.6,68.2,28.85,NW,315,0.0,0.0,89,0.05,,---,0.05,VWS V14.00,2013-07-02 08:32:00,
2013-07-02 04:38:00,71.6,68.2,28.85,NW,315,0.0,0.0,89,0.05,,---,0.05,VWS V14.00,2013-07-02 08:38:00,
2013-07-02 04:44:00,71.6,68.2,28.85,NW,315,0.0,0.0,89,0.05,,---,0.05,VWS V14.00,2013-07-02 08:44:00,
2013-07-02 04:50:00,71.6,68.2,28.85,NW,315,0.0,0.0,89,0.05,,---,0.05,VWS V14.00,2013-07-02 08:50:00,
2013-07-02 04:56:00,71.6,68.2,28.85,NW,315,0.0,0.0,89,0.05,,---,0.05,VWS V14.00,2013-07-02 08:56:00,
2013-07-02 05:02:00,71.6,68.2,28.85,NW,315,0.0,0.0,89,0.05,,---,0.05,VWS V14.00,2013-07-02 09:02:00,
2013-07-02 05:08:00,71.6,68.2,28.85,NW,315,0.0,0.0,89,0.05,,---,0.05,VWS V14.00,2013-07-02 09:08:00,
2013-07-02 05:14:00,71.6,68.2,28.85,West,270,2.5,2.5,89,0.05,,---,0.05,VWS V14.00,2013-07-02 09:14:00,
2013-07-02 05:20:00,71.6,68.2,28.85,West,270,0.0,2.5,89,0.17,,---,0.17,VWS V14.00,2013-07-02 09:20:00,
2013-07-02 05:26:00,71.6,68.2,28.85,NNW,338,0.0,2.5,89,0.21,,---,0.21,VWS V14.00,2013-07-02 09:26:00,
2013-07-02 05:32:00,71.4,68.3,28.85,ENE,68,0.0,2.5,90,0.21,,---,0.21,VWS V14.00,2013-07-02 09:32:00,
2013-07-02 05:38:00,71.6,68.2,28.85,North,0,0.0,2.5,89,0.21,,---,0.21,VWS V14.00,2013-07-02 09:38:00,
2013-07-02 05:44:00,71.4,68.3,28.85,WNW,292,0.0,2.5,90,0.21,,---,0.21,VWS V14.00,2013-07-02 09:44:00,
2013-07-02 05:50:00,71.4,68.3,28.85,WNW,292,0.0,2.5,90,0.21,,---,0.21,VWS V14.00,2013-07-02 09:50:00,
2013-07-02 05:56:00,71.4,68.3,28.85,WNW,292,0.0,2.5,90,0.21,,---,0.21,VWS V14.00,2013-07-02 09:56:00,
2013-07-02 06:02:00,71.4,68.3,28.85,WNW,292,0.0,0.0,90,0.16,,---,0.21,VWS V14.00,2013-07-02 10:02:00,
2013-07-02 06:08:00,71.4,68.3,28.85,WNW,292,0.0,0.0,90,0.16,,---,0.21,VWS V14.00,2013-07-02 10:08:00,
2013-07-02 06:14:00,71.6,68.5,28.85,WNW,292,0.0,0.0,90,0.16,,---,0.21,VWS V14.00,2013-07-02 10:14:00,
2013-07-02 06:20:00,71.4,68.3,28.85,WNW,292,0.0,0.0,90,0.16,,---,0.21,VWS V14.00,2013-07-02 10:20:00,
2013-07-02 06:26:00,71.4,68.3,28.85,West,270,0.0,0.0,90,0.16,,---,0.21,VWS V14.00,2013-07-02 10:26:00,
2013-07-02 06:32:00,71.4,68.7,28.85,WNW,292,0.0,2.0,91,0.16,,---,0.21,VWS V14.00,2013-07-02 10:32:00,
2013-07-02 06:38:00,71.6,68.5,28.85,WNW,292,0.0,2.0,90,0.16,,---,0.21,VWS V14.00,2013-07-02 10:38:00,
2013-07-02 06:44:00,71.4,68.7,28.85,NE,45,0.0,2.2,91,0.16,,---,0.21,VWS V14.00,2013-07-02 10:44:00,
2013-07-02 06:50:00,71.6,68.8,28.85,ENE,68,0.0,2.2,91,0.16,,---,0.21,VWS V14.00,2013-07-02 10:50:00,
2013-07-02 06:56:00,71.6,68.8,28.85,WNW,292,0.0,2.2,91,0.16,,---,0.21,VWS V14.00,2013-07-02 10:56:00,
2013-07-02 07:02:00,71.6,68.8,28.88,WNW,292,0.0,0.0,91,0.00,,---,0.21,VWS V14.00,2013-07-02 11:02:00,
2013-07-02 07:08:00,71.6,68.8,28.88,West,270,0.0,2.5,91,0.00,,---,0.21,VWS V14.00,2013-07-02 11:08:00,
2013-07-02 07:14:00,71.8,69.3,28.88,West,270,0.0,2.5,92,0.00,,---,0.21,VWS V14.00,2013-07-02 11:14:00,
2013-07-02 07:20:00,71.8,69.3,28.88,NW,315,0.0,2.5,92,0.00,,---,0.21,VWS V14.00,2013-07-02 11:20:00,
2013-07-02 07:26:00,71.8,69.3,28.88,WNW,292,0.0,2.5,92,0.00,,---,0.21,VWS V14.00,2013-07-02 11:26:00,
2013-07-02 07:32:00,72.0,69.5,28.88,WNW,292,0.0,2.5,92,0.00,,---,0.21,VWS V14.00,2013-07-02 11:32:00,
2013-07-02 07:38:00,72.0,69.5,28.88,WNW,292,0.0,2.5,92,0.00,,---,0.21,VWS V14.00,2013-07-02 11:38:00,
2013-07-02 07:44:00,72.1,69.7,28.88,WNW,292,0.0,2.5,92,0.00,,---,0.21,VWS V14.00,2013-07-02 11:44:00,
2013-07-02 07:50:00,72.1,69.7,28.88,WNW,292,0.0,2.5,92,0.00,,---,0.21,VWS V14.00,2013-07-02 11:50:00,
2013-07-02 07:56:00,72.3,70.2,28.88,East,90,0.0,2.5,93,0.00,,---,0.21,VWS V14.00,2013-07-02 11:56:00,
2013-07-02 08:02:00,72.5,70.4,28.88,East,90,0.0,0.0,93,0.00,,---,0.21,VWS V14.00,2013-07-02 12:02:00,
2013-07-02 08:08:00,72.5,70.7,28.88,East,90,0.0,0.0,94,0.00,,---,0.21,VWS V14.00,2013-07-02 12:08:00,
2013-07-02 08:14:00,72.5,70.7,28.88,East,90,0.0,0.0,94,0.00,,---,0.21,VWS V14.00,2013-07-02 12:14:00,
2013-07-02 08:20:00,72.7,70.9,28.88,East,90,0.0,0.0,94,0.00,,---,0.21,VWS V14.00,2013-07-02 12:20:00,
2013-07-02 08:26:00,72.9,71.0,28.88,East,90,0.0,0.0,94,0.00,,---,0.21,VWS V14.00,2013-07-02 12:26:00,
2013-07-02 08:32:00,72.9,71.0,28.88,NNW,338,0.9,2.0,94,0.00,,---,0.21,VWS V14.00,2013-07-02 12:32:00,
2013-07-02 08:38:00,72.9,71.0,28.88,NW,315,1.3,2.0,94,0.00,,---,0.21,VWS V14.00,2013-07-02 12:38:00,
2013-07-02 08:45:00,72.9,71.0,28.88,NW,315,1.3,2.0,94,0.00,,---,0.21,VWS V14.00,2013-07-02 12:45:00,
2013-07-02 08:51:00,73.0,71.2,28.88,NW,315,1.3,2.0,94,0.00,,---,0.21,VWS V14.00,2013-07-02 12:51:00,
2013-07-02 08:57:00,73.0,71.2,28.88,NNE,22,0.0,2.0,94,0.00,,---,0.21,VWS V14.00,2013-07-02 12:57:00,
2013-07-02 09:03:00,73.0,71.2,28.91,North,0,2.9,4.0,94,0.00,,---,0.21,VWS V14.00,2013-07-02 13:03:00,
2013-07-02 09:09:00,73.2,71.4,28.91,NNW,338,3.8,5.8,94,0.00,,---,0.21,VWS V14.00,2013-07-02 13:09:00,
2013-07-02 09:15:00,73.4,71.3,28.91,South,180,1.3,5.8,93,0.00,,---,0.21,VWS V14.00,2013-07-02 13:15:00,
2013-07-02 09:21:00,73.4,71.3,28.91,NNE,22,0.0,5.8,93,0.00,,---,0.21,VWS V14.00,2013-07-02 13:21:00,
2013-07-02 09:27:00,73.6,71.4,28.91,NNE,22,0.0,5.8,93,0.00,,---,0.21,VWS V14.00,2013-07-02 13:27:00,
2013-07-02 09:33:00,73.6,71.4,28.91,NNE,22,0.0,5.8,93,0.00,,---,0.21,VWS V14.00,2013-07-02 13:33:00,
2013-07-02 09:39:00,73.8,71.6,28.91,NNE,22,0.0,5.8,93,0.00,,---,0.21,VWS V14.00,2013-07-02 13:39:00,
2013-07-02 09:45:00,73.9,71.8,28.91,NNE,22,0.0,5.8,93,0.00,,---,0.21,VWS V14.00,2013-07-02 13:45:00,
2013-07-02 09:51:00,74.1,72.0,28.91,WNW,292,1.3,5.8,93,0.00,,---,0.21,VWS V14.00,2013-07-02 13:51:00,
2013-07-02 09:57:00,74.3,72.5,28.91,WNW,292,0.0,5.8,94,0.00,,---,0.21,VWS V14.00,2013-07-02 13:57:00,
2013-07-02 10:03:00,74.7,72.8,28.91,WNW,292,0.0,0.0,94,0.00,,---,0.21,VWS V14.00,2013-07-02 14:03:00,
2013-07-02 10:09:00,74.7,72.5,28.91,WNW,292,0.0,0.0,93,0.00,,---,0.21,VWS V14.00,2013-07-02 14:09:00,
2013-07-02 10:15:00,74.8,72.4,28.91,WNW,292,0.0,0.0,92,0.00,,---,0.21,VWS V14.00,2013-07-02 14:15:00,
2013-07-02 10:21:00,74.8,72.0,28.91,ENE,68,0.0,0.0,91,0.00,,---,0.21,VWS V14.00,2013-07-02 14:21:00,
2013-07-02 10:27:00,75.2,72.4,28.91,ENE,68,0.0,0.0,91,0.00,,---,0.21,VWS V14.00,2013-07-02 14:27:00,
2013-07-02 10:33:00,75.4,72.6,28.91,ENE,68,0.0,0.0,91,0.00,,---,0.21,VWS V14.00,2013-07-02 14:33:00,
2013-07-02 10:39:00,75.6,72.8,28.91,WNW,292,1.3,1.3,91,0.00,,---,0.21,VWS V14.00,2013-07-02 14:39:00,
2013-07-02 10:45:00,75.6,72.4,28.91,WNW,292,1.3,1.3,90,0.00,,---,0.21,VWS V14.00,2013-07-02 14:45:00,
2013-07-02 10:51:00,75.6,72.1,28.91,WNW,292,1.3,1.3,89,0.00,,---,0.21,VWS V14.00,2013-07-02 14:51:00,
2013-07-02 10:57:00,75.6,72.1,28.91,WNW,292,1.3,1.3,89,0.00,,---,0.21,VWS V14.00,2013-07-02 14:57:00,
2013-07-02 11:03:00,75.7,72.3,28.91,WNW,292,1.3,1.3,89,0.00,,---,0.21,VWS V14.00,2013-07-02 15:03:00,
2013-07-02 11:09:00,76.1,72.3,28.91,WNW,292,1.3,1.3,88,0.00,,---,0.21,VWS V14.00,2013-07-02 15:09:00,
2013-07-02 11:15:00,76.1,71.6,28.91,WNW,292,1.3,1.3,86,0.00,,---,0.21,VWS V14.00,2013-07-02 15:15:00,
2013-07-02 11:21:00,76.5,72.3,28.91,WNW,292,1.3,1.3,87,0.00,,---,0.21,VWS V14.00,2013-07-02 15:21:00,
2013-07-02 11:27:00,77.0,72.5,28.91,WNW,292,1.3,1.3,86,0.00,,---,0.21,VWS V14.00,2013-07-02 15:27:00,
2013-07-02 11:33:00,77.5,73.4,28.91,WNW,292,1.3,1.3,87,0.00,,---,0.21,VWS V14.00,2013-07-02 15:33:00,
2013-07-02 11:39:00,78.1,73.6,28.91,WNW,292,1.3,1.3,86,0.00,,---,0.21,VWS V14.00,2013-07-02 15:39:00,
2013-07-02 11:45:00,78.4,73.2,28.91,WNW,292,1.3,1.3,84,0.00,,---,0.21,VWS V14.00,2013-07-02 15:45:00,
2013-07-02 11:51:00,78.8,73.2,28.91,WNW,292,1.3,1.3,83,0.00,,---,0.21,VWS V14.00,2013-07-02 15:51:00,
2013-07-02 11:57:00,79.0,73.0,28.91,WNW,292,1.3,1.3,82,0.00,,---,0.21,VWS V14.00,2013-07-02 15:57:00,
2013-07-02 12:03:00,79.3,73.4,28.91,WNW,292,1.3,1.3,82,0.00,,---,0.21,VWS V14.00,2013-07-02 16:03:00,
2013-07-02 12:09:00,79.7,73.0,28.91,SE,135,0.0,1.3,80,0.00,,---,0.21,VWS V14.00,2013-07-02 16:09:00,
2013-07-02 12:15:00,79.9,72.8,28.91,SE,135,0.0,1.3,79,0.00,,---,0.21,VWS V14.00,2013-07-02 16:15:00,
2013-07-02 12:21:00,80.2,73.1,28.91,WSW,248,2.2,2.2,79,0.00,,---,0.21,VWS V14.00,2013-07-02 16:21:00,
2013-07-02 12:27:00,80.4,73.3,28.91,WSW,248,2.2,2.2,79,0.00,,---,0.21,VWS V14.00,2013-07-02 16:27:00,
2013-07-02 12:33:00,80.6,73.1,28.88,WSW,248,2.2,2.2,78,0.00,,---,0.21,VWS V14.00,2013-07-02 16:33:00,
2013-07-02 12:39:00,80.6,72.7,28.88,WSW,248,2.2,2.2,77,0.00,,---,0.21,VWS V14.00,2013-07-02 16:39:00,
2013-07-02 12:45:00,80.6,72.7,28.91,East,90,2.2,2.2,77,0.00,,---,0.21,VWS V14.00,2013-07-02 16:45:00,
2013-07-02 12:51:00,80.6,72.7,28.91,East,90,2.2,2.2,77,0.00,,---,0.21,VWS V14.00,2013-07-02 16:51:00,
2013-07-02 12:58:00,80.8,72.9,28.91,East,90,2.2,2.2,77,0.00,,---,0.21,VWS V14.00,2013-07-02 16:58:00,
2013-07-02 13:04:00,81.0,73.1,28.88,East,90,2.2,2.2,77,0.00,,---,0.21,VWS V14.00,2013-07-02 17:04:00,
2013-07-02 13:10:00,81.1,73.2,28.88,SSE,158,0.0,2.2,77,0.00,,---,0.21,VWS V14.00,2013-07-02 17:10:00,
2013-07-02 13:16:00,81.3,73.4,28.88,SSE,158,0.0,2.2,77,0.00,,---,0.21,VWS V14.00,2013-07-02 17:16:00,
2013-07-02 13:22:00,81.3,73.0,28.88,South,180,2.9,2.9,76,0.00,,---,0.21,VWS V14.00,2013-07-02 17:22:00,
2013-07-02 13:28:00,81.5,72.8,28.88,South,180,2.9,2.9,75,0.00,,---,0.21,VWS V14.00,2013-07-02 17:28:00,
2013-07-02 13:34:00,82.0,73.7,28.88,South,180,2.9,2.9,76,0.00,,---,0.21,VWS V14.00,2013-07-02 17:34:00,
2013-07-02 13:40:00,82.0,73.3,28.88,South,180,2.9,2.9,75,0.00,,---,0.21,VWS V14.00,2013-07-02 17:40:00,
2013-07-02 13:46:00,82.2,73.1,28.88,South,180,2.9,2.9,74,0.00,,---,0.21,VWS V14.00,2013-07-02 17:46:00,
2013-07-02 13:52:00,82.2,72.7,28.88,East,90,2.5,2.9,73,0.00,,---,0.21,VWS V14.00,2013-07-02 17:52:00,
2013-07-02 13:58:00,82.4,73.3,28.88,East,90,2.5,2.9,74,0.00,,---,0.21,VWS V14.00,2013-07-02 17:58:00,
2013-07-02 14:04:00,82.8,73.2,28.88,ESE,112,0.0,2.5,73,0.00,,---,0.21,VWS V14.00,2013-07-02 18:04:00,
2013-07-02 14:10:00,82.8,73.6,28.88,ESE,112,0.0,2.5,74,0.00,,---,0.21,VWS V14.00,2013-07-02 18:10:00,
2013-07-02 14:16:00,83.1,74.0,28.88,ESE,112,0.0,2.5,74,0.00,,---,0.21,VWS V14.00,2013-07-02 18:16:00,
2013-07-02 14:22:00,83.3,73.3,28.88,ESE,112,0.0,2.5,72,0.00,,---,0.21,VWS V14.00,2013-07-02 18:22:00,
2013-07-02 14:28:00,83.5,73.5,28.88,East,90,2.0,2.5,72,0.00,,---,0.21,VWS V14.00,2013-07-02 18:28:00,
2013-07-02 14:34:00,83.7,73.3,28.88,NE,45,0.0,2.5,71,0.00,,---,0.21,VWS V14.00,2013-07-02 18:34:00,
2013-07-02 14:40:00,83.8,73.4,28.88,NE,45,0.0,2.5,71,0.00,,---,0.21,VWS V14.00,2013-07-02 18:40:00,
2013-07-02 14:46:00,84.0,73.6,28.88,SE,135,1.6,2.5,71,0.00,,---,0.21,VWS V14.00,2013-07-02 18:46:00,
2013-07-02 14:52:00,84.0,73.2,28.88,SSW,202,2.2,2.5,70,0.00,,---,0.21,VWS V14.00,2013-07-02 18:52:00,
2013-07-02 14:58:00,84.0,73.2,28.88,West,270,2.0,2.5,70,0.00,,---,0.21,VWS V14.00,2013-07-02 18:58:00,
2013-07-02 15:04:00,83.8,73.0,28.88,West,270,1.1,2.0,70,0.00,,---,0.21,VWS V14.00,2013-07-02 19:04:00,
2013-07-02 15:10:00,83.7,72.8,28.88,NE,45,0.0,2.0,70,0.00,,---,0.21,VWS V14.00,2013-07-02 19:10:00,
2013-07-02 15:16:00,83.7,73.3,28.88,WNW,292,1.3,2.0,71,0.00,,---,0.21,VWS V14.00,2013-07-02 19:16:00,
2013-07-02 15:22:00,83.5,72.2,28.88,WNW,292,1.3,2.0,69,0.00,,---,0.21,VWS V14.00,2013-07-02 19:22:00,
2013-07-02 15:28:00,83.5,72.7,28.88,NW,315,2.0,2.7,70,0.00,,---,0.21,VWS V14.00,2013-07-02 19:28:00,
2013-07-02 15:34:00,83.5,73.1,28.88,West,270,2.0,2.7,71,0.00,,---,0.21,VWS V14.00,2013-07-02 19:34:00,
2013-07-02 15:40:00,83.5,72.7,28.88,West,270,2.0,2.7,70,0.00,,---,0.21,VWS V14.00,2013-07-02 19:40:00,
2013-07-02 15:46:00,83.8,73.4,28.88,ESE,112,1.6,2.7,71,0.00,,---,0.21,VWS V14.00,2013-07-02 19:46:00,
2013-07-02 15:52:00,84.0,73.2,28.88,ESE,112,1.6,2.7,70,0.00,,---,0.21,VWS V14.00,2013-07-02 19:52:00,
2013-07-02 15:58:00,83.8,72.6,28.88,ESE,112,1.6,2.7,69,0.00,,---,0.21,VWS V14.00,2013-07-02 19:58:00,
2013-07-02 16:04:00,83.5,72.2,28.88,ESE,112,2.0,2.0,69,0.00,,---,0.21,VWS V14.00,2013-07-02 20:04:00,
2013-07-02 16:10:00,83.3,72.1,28.88,South,180,0.9,3.1,69,0.00,,---,0.21,VWS V14.00,2013-07-02 20:10:00,
2013-07-02 16:16:00,83.3,72.1,28.88,SE,135,2.0,3.1,69,0.00,,---,0.21,VWS V14.00,2013-07-02 20:16:00,
2013-07-02 16:22:00,83.3,71.6,28.88,SE,135,2.0,3.1,68,0.00,,---,0.21,VWS V14.00,2013-07-02 20:22:00,
2013-07-02 16:28:00,83.5,72.2,28.88,East,90,3.6,3.6,69,0.00,,---,0.21,VWS V14.00,2013-07-02 20:28:00,
2013-07-02 16:34:00,83.5,71.8,28.88,East,90,2.7,3.6,68,0.00,,---,0.21,VWS V14.00,2013-07-02 20:34:00,
2013-07-02 16:40:00,83.7,72.0,28.88,East,90,2.7,3.6,68,0.00,,---,0.21,VWS V14.00,2013-07-02 20:40:00,
2013-07-02 16:46:00,83.7,72.0,28.88,NW,315,2.7,3.6,68,0.00,,---,0.21,VWS V14.00,2013-07-02 20:46:00,
2013-07-02 16:52:00,83.8,71.7,28.88,NW,315,2.7,3.6,67,0.00,,---,0.21,VWS V14.00,2013-07-02 20:52:00,
2013-07-02 16:58:00,83.8,71.7,28.88,NW,315,2.7,3.6,67,0.00,,---,0.21,VWS V14.00,2013-07-02 20:58:00,
2013-07-02 17:04:00,83.7,71.6,28.88,NW,315,2.7,2.7,67,0.00,,---,0.21,VWS V14.00,2013-07-02 21:04:00,
2013-07-02 17:11:00,83.8,71.7,28.88,NW,315,2.7,2.7,67,0.00,,---,0.21,VWS V14.00,2013-07-02 21:11:00,
2013-07-02 17:17:00,84.0,71.9,28.88,West,270,2.9,2.9,67,0.00,,---,0.21,VWS V14.00,2013-07-02 21:17:00,
2013-07-02 17:23:00,84.0,71.9,28.88,West,270,2.9,2.9,67,0.00,,---,0.21,VWS V14.00,2013-07-02 21:23:00,
2013-07-02 17:29:00,84.0,71.9,28.88,West,270,2.9,2.9,67,0.00,,---,0.21,VWS V14.00,2013-07-02 21:29:00,
2013-07-02 17:35:00,84.0,71.9,28.88,West,270,2.9,2.9,67,0.00,,---,0.21,VWS V14.00,2013-07-02 21:35:00,
2013-07-02 17:41:00,83.8,72.2,28.88,West,270,2.9,2.9,68,0.00,,---,0.21,VWS V14.00,2013-07-02 21:41:00,
2013-07-02 17:47:00,83.8,72.2,28.88,SW,225,1.1,2.9,68,0.00,,---,0.21,VWS V14.00,2013-07-02 21:47:00,
2013-07-02 17:53:00,83.8,71.7,28.88,SW,225,1.1,2.9,67,0.00,,---,0.21,VWS V14.00,2013-07-02 21:53:00,
2013-07-02 17:59:00,83.8,72.2,28.88,SW,225,1.1,2.9,68,0.00,,---,0.21,VWS V14.00,2013-07-02 21:59:00,
2013-07-02 18:05:00,83.8,72.2,28.88,SW,225,1.1,1.1,68,0.00,,---,0.21,VWS V14.00,2013-07-02 22:05:00,
2013-07-02 18:11:00,83.8,72.2,28.88,SW,225,1.1,1.1,68,0.00,,---,0.21,VWS V14.00,2013-07-02 22:11:00,
2013-07-02 18:17:00,83.7,71.6,28.88,West,270,2.5,4.3,67,0.00,,---,0.21,VWS V14.00,2013-07-02 22:17:00,
2013-07-02 18:23:00,83.7,71.6,28.88,WSW,248,2.2,4.3,67,0.00,,---,0.21,VWS V14.00,2013-07-02 22:23:00,
2013-07-02 18:29:00,83.7,72.0,28.88,WSW,248,2.2,4.3,68,0.00,,---,0.21,VWS V14.00,2013-07-02 22:29:00,
2013-07-02 18:35:00,83.7,72.0,28.88,WSW,248,2.2,4.3,68,0.00,,---,0.21,VWS V14.00,2013-07-02 22:35:00,
2013-07-02 18:41:00,83.5,71.8,28.88,WSW,248,2.2,4.3,68,0.00,,---,0.21,VWS V14.00,2013-07-02 22:41:00,
2013-07-02 18:47:00,83.3,71.6,28.88,WSW,248,2.2,4.3,68,0.00,,---,0.21,VWS V14.00,2013-07-02 22:47:00,
2013-07-02 18:53:00,83.1,71.5,28.88,WSW,248,2.2,4.3,68,0.00,,---,0.21,VWS V14.00,2013-07-02 22:53:00,
2013-07-02 18:59:00,82.9,71.3,28.88,SSE,158,1.3,4.3,68,0.00,,---,0.21,VWS V14.00,2013-07-02 22:59:00,
2013-07-02 19:05:00,82.6,71.4,28.88,SSE,158,1.3,1.3,69,0.00,,---,0.21,VWS V14.00,2013-07-02 23:05:00,
2013-07-02 19:11:00,82.4,71.2,28.88,SSE,158,1.3,1.3,69,0.00,,---,0.21,VWS V14.00,2013-07-02 23:11:00,
2013-07-02 19:17:00,82.0,71.3,28.91,SSE,158,1.3,1.3,70,0.00,,---,0.21,VWS V14.00,2013-07-02 23:17:00,
2013-07-02 19:23:00,81.9,71.1,28.91,SSE,158,1.3,1.3,70,0.00,,---,0.21,VWS V14.00,2013-07-02 23:23:00,
2013-07-02 19:29:00,81.9,71.1,28.91,SSE,158,1.3,1.3,70,0.00,,---,0.21,VWS V14.00,2013-07-02 23:29:00,
2013-07-02 19:35:00,81.7,71.4,28.91,SSE,158,1.3,1.3,71,0.00,,---,0.21,VWS V14.00,2013-07-02 23:35:00,
2013-07-02 19:41:00,81.5,71.2,28.91,SSE,158,1.3,1.3,71,0.00,,---,0.21,VWS V14.00,2013-07-02 23:41:00,
2013-07-02 19:47:00,81.5,71.2,28.91,SSE,158,1.3,1.3,71,0.00,,---,0.21,VWS V14.00,2013-07-02 23:47:00,
2013-07-02 19:56:00,81.1,70.8,28.91,SSE,158,1.3,1.3,71,0.00,,---,0.21,VWS V14.00,2013-07-02 23:56:00,
2013-07-02 19:59:00,81.1,70.8,28.91,SSE,158,1.3,1.3,71,0.00,,---,0.21,VWS V14.00,2013-07-02 23:59:00,
2013-07-02 20:05:00,81.0,70.7,28.91,SSE,158,1.3,1.3,71,0.00,,---,0.21,VWS V14.00,2013-07-03 00:05:00,
2013-07-02 20:11:00,80.8,70.5,28.91,SSE,158,1.3,1.3,71,0.00,,---,0.21,VWS V14.00,2013-07-03 00:11:00,
2013-07-02 20:17:00,80.6,70.3,28.94,SSE,158,1.3,1.3,71,0.00,,---,0.21,VWS V14.00,2013-07-03 00:17:00,
2013-07-02 20:26:00,80.2,70.4,28.94,SSE,158,1.3,1.3,72,0.00,,---,0.21,VWS V14.00,2013-07-03 00:26:00,
2013-07-02 20:29:00,80.2,70.4,28.94,SSE,158,1.3,1.3,72,0.00,,---,0.21,VWS V14.00,2013-07-03 00:29:00,
2013-07-02 20:35:00,80.1,70.6,28.94,SSE,158,1.3,1.3,73,0.00,,---,0.21,VWS V14.00,2013-07-03 00:35:00,
2013-07-02 20:41:00,79.9,70.5,28.94,SSE,158,1.3,1.3,73,0.00,,---,0.21,VWS V14.00,2013-07-03 00:41:00,
2013-07-02 20:47:00,79.7,70.7,28.94,SSE,158,1.3,1.3,74,0.00,,---,0.21,VWS V14.00,2013-07-03 00:47:00,
2013-07-02 20:53:00,79.5,70.5,28.94,SSE,158,1.3,1.3,74,0.00,,---,0.21,VWS V14.00,2013-07-03 00:53:00,
2013-07-02 20:59:00,79.5,70.9,28.94,SSE,158,1.3,1.3,75,0.00,,---,0.21,VWS V14.00,2013-07-03 00:59:00,
2013-07-02 21:05:00,79.3,70.7,28.94,SSE,158,1.3,1.3,75,0.00,,---,0.21,VWS V14.00,2013-07-03 01:05:00,
2013-07-02 21:11:00,79.2,70.6,28.94,SSE,158,1.3,1.3,75,0.00,,---,0.21,VWS V14.00,2013-07-03 01:11:00,
2013-07-02 21:14:00,79.2,70.6,28.94,SSE,158,1.3,1.3,75,0.00,,---,0.21,VWS V14.00,2013-07-03 01:14:00,
2013-07-02 21:20:00,79.0,70.4,28.94,SSE,158,1.3,1.3,75,0.00,,---,0.21,VWS V14.00,2013-07-03 01:20:00,
2013-07-02 21:23:00,79.0,70.4,28.94,SSE,158,1.3,1.3,75,0.00,,---,0.21,VWS V14.00,2013-07-03 01:23:00,
2013-07-02 21:30:00,78.8,70.2,28.94,SSE,158,1.3,1.3,75,0.00,,---,0.21,VWS V14.00,2013-07-03 01:30:00,
2013-07-02 21:36:00,78.6,70.4,28.94,SSE,158,1.3,1.3,76,0.00,,---,0.21,VWS V14.00,2013-07-03 01:36:00,
2013-07-02 21:42:00,78.4,70.2,28.94,SSE,158,1.3,1.3,76,0.00,,---,0.21,VWS V14.00,2013-07-03 01:42:00,
2013-07-02 21:48:00,78.4,70.2,28.94,SSE,158,1.3,1.3,76,0.00,,---,0.21,VWS V14.00,2013-07-03 01:48:00,
2013-07-02 21:51:00,78.4,70.2,28.94,SSE,158,1.3,1.3,76,0.00,,---,0.21,VWS V14.00,2013-07-03 01:51:00,
2013-07-02 21:57:00,78.3,70.1,28.94,SSE,158,1.3,1.3,76,0.00,,---,0.21,VWS V14.00,2013-07-03 01:57:00,
2013-07-02 22:06:00,78.1,70.3,28.97,SSE,158,1.3,1.3,77,0.00,,---,0.21,VWS V14.00,2013-07-03 02:06:00,
2013-07-02 22:12:00,78.1,70.3,28.97,SSE,158,1.3,1.3,77,0.00,,---,0.21,VWS V14.00,2013-07-03 02:12:00,
2013-07-02 22:18:00,77.9,70.1,28.97,SSE,158,1.3,1.3,77,0.00,,---,0.21,VWS V14.00,2013-07-03 02:18:00,
2013-07-02 22:30:00,77.9,70.1,28.97,SSE,158,1.3,1.3,77,0.00,,---,0.21,VWS V14.00,2013-07-03 02:30:00,
2013-07-02 22:36:00,77.7,69.9,28.97,SSE,158,1.3,1.3,77,0.00,,---,0.21,VWS V14.00,2013-07-03 02:36:00,
2013-07-02 22:49:00,77.5,69.8,28.97,SSE,158,1.3,1.3,77,0.00,,---,0.21,VWS V14.00,2013-07-03 02:49:00,
2013-07-02 22:52:00,77.5,69.8,28.97,SSE,158,1.3,1.3,77,0.00,,---,0.21,VWS V14.00,2013-07-03 02:52:00,
2013-07-02 22:58:00,77.4,70.0,28.97,SSE,158,1.3,1.3,78,0.00,,---,0.21,VWS V14.00,2013-07-03 02:58:00,
2013-07-02 23:04:00,77.4,70.0,28.97,SSE,158,1.3,1.3,78,0.00,,---,0.21,VWS V14.00,2013-07-03 03:04:00,
2013-07-02 23:13:00,77.2,69.8,28.97,SSE,158,1.3,1.3,78,0.00,,---,0.21,VWS V14.00,2013-07-03 03:13:00,
2013-07-02 23:19:00,77.2,69.8,28.97,SSE,158,1.3,1.3,78,0.00,,---,0.21,VWS V14.00,2013-07-03 03:19:00,
2013-07-02 23:22:00,77.2,69.8,28.97,SSE,158,1.3,1.3,78,0.00,,---,0.21,VWS V14.00,2013-07-03 03:22:00,
2013-07-02 23:25:00,77.2,69.8,28.97,SSE,158,1.3,1.3,78,0.00,,---,0.21,VWS V14.00,2013-07-03 03:25:00,
2013-07-02 23:41:00,77.0,70.0,28.97,SSE,158,1.3,1.3,79,0.00,,---,0.21,VWS V14.00,2013-07-03 03:41:00,
2013-07-02 23:44:00,77.0,70.0,28.97,SSE,158,1.3,1.3,79,0.00,,---,0.21,VWS V14.00,2013-07-03 03:44:00,
2013-07-02 23:50:00,77.0,70.0,28.97,SSE,158,1.3,1.3,79,0.00,,---,0.21,VWS V14.00,2013-07-03 03:50:00,